Location: Paddlesworth
(51.1000°N, 1.1333°E)
Time: 07:12:16
(UTC+00:00)

Meteor 1-5 Rocket - Pass Details

Date: 11 May 2021
Orbit: 788 x 916 km, 81.2° (Epoch: 20 June)

Event Time Altitude Azimuth Distance (km) Brightness Sun altitude
Rises 20:56:08 0° 347° (NNW) 3,364 8.5 -10.8°
Reaches altitude 10° 20:58:34 10° 349° (N) 2,411 7.6 -11.1°
Maximum altitude 21:04:00 82° 77° (ENE) 813 4.1 -11.6°
Enters shadow 21:08:38 14° 165° (SSE) 2,094 5.7 -12.1°
